Olivia, MN

3:32 PM CST on February 20, 2017 (GMT -0600)
Olivia Regional

Weather History for KOVL - January, 2014

Change the Weather History Date:

Saturday, January 25, 2014

  Actual Average (KRWF) Record (KRWF)
Temperature  
Mean Temperature 16 °F -  
Max Temperature 28 °F 20 °F 64 °F (1944)
Min Temperature 3 °F 3 °F -18 °F (1936)
Degree Days  
Heating Degree Days 50    
Moisture  
Dew Point 2 °F    
Average Humidity 66    
Maximum Humidity 92    
Minimum Humidity 52    
Precipitation  
Precipitation 0.00 in - - ()
Sea Level Pressure  
Sea Level Pressure 29.80 in    
Wind  
Wind Speed 20 mph (NW)    
Max Wind Speed 28 mph    
Max Gust Speed 34 mph    
Visibility 9 miles    
Events Snow    
Averages and records for this station are not official NWS values.
T = Trace of Precipitation, MM = Missing Value Source: NWS Daily Summary

Daily Weather History Graph

Daily Weather History Graph

Search for Another Location

Airport or City:

Trip Planner

Search our weather history database for the weather conditions in past years. The results will help you decide how hot, cold, wet, or windy it might be!

Date:

Astronomy

Jan. 25, 2014 Rise Set
Actual Time 7:46 AM CST 5:18 PM CST
Civil Twilight 7:14 AM CST 5:50 PM CST
Nautical Twilight 6:39 AM CST 6:26 PM CST
Astronomical Twilight 6:04 AM CST 7:00 PM CST
Moon 2:18 AM CST (1/25) 12:20 PM CST (1/25)
Length of Visible Light 10h 35m
Length of Day
9h 32m
Waning Crescent, 34% of the Moon is Illuminated
Jan 25
Waning Crescent
Jan 30
New
Feb 6
First Quarter
Feb 14
Full
Feb 22
Last Quarter

Hourly Weather History & Observations

Time (CST) Temp. Windchill Dew Point Humidity Pressure Visibility Wind Dir Wind Speed Gust Speed Precip Events Conditions
12:13 AM 28.4 °F 14.7 °F 19.4 °F 69% 29.68 in 10.0 mi NW 21.9 mph 32.2 mph N/A   Scattered Clouds
12:33 AM 24.8 °F 9.3 °F 14.0 °F 64% 29.69 in 10.0 mi NW 24.2 mph 28.8 mph N/A   Scattered Clouds
12:53 AM 23.0 °F 7.2 °F 14.0 °F 68% 29.71 in 10.0 mi NNW 23.0 mph 28.8 mph N/A   Scattered Clouds
1:13 AM 19.4 °F 2.1 °F 8.6 °F 63% 29.73 in 10.0 mi NNW 24.2 mph 31.1 mph N/A   Scattered Clouds
1:33 AM 17.6 °F 2.7 °F 8.6 °F 68% 29.74 in 10.0 mi NNW 16.1 mph 27.6 mph N/A   Clear
1:53 AM 17.6 °F 0.9 °F 8.6 °F 68% 29.76 in 10.0 mi NW 20.7 mph 28.8 mph N/A   Clear
2:14 AM 15.8 °F -2.3 °F 6.8 °F 68% 29.77 in 10.0 mi NW 23.0 mph 32.2 mph N/A   Clear
2:33 AM 15.8 °F -2.3 °F 6.8 °F 68% 29.78 in 10.0 mi NW 23.0 mph 33.4 mph N/A   Clear
2:53 AM 12.2 °F -6.3 °F 3.2 °F 67% 29.79 in 10.0 mi NW 20.7 mph 28.8 mph N/A   Clear
3:13 AM 12.2 °F -6.7 °F 3.2 °F 67% 29.80 in 10.0 mi NW 21.9 mph 29.9 mph N/A   Clear
3:34 AM 12.2 °F -7.1 °F 1.4 °F 62% 29.81 in 10.0 mi NW 23.0 mph 32.2 mph N/A   Clear
3:53 AM 10.4 °F -9.1 °F -0.4 °F 62% 29.82 in 10.0 mi NW 21.9 mph 28.8 mph N/A   Clear
4:13 AM 10.4 °F -9.5 °F -0.4 °F 62% 29.83 in 10.0 mi NW 23.0 mph 27.6 mph N/A   Clear
4:33 AM 10.4 °F -9.9 °F -0.4 °F 62% 29.84 in 10.0 mi NW 24.2 mph 32.2 mph N/A   Clear
4:53 AM 10.4 °F -9.1 °F -4.0 °F 52% 29.86 in 10.0 mi NW 21.9 mph 28.8 mph N/A   Clear
5:13 AM 8.6 °F -12.3 °F -4.0 °F 57% 29.86 in 10.0 mi NW 24.2 mph 31.1 mph N/A   Clear
5:33 AM 8.6 °F -11.4 °F -4.0 °F 57% 29.87 in 10.0 mi NW 21.9 mph 27.6 mph N/A   Clear
5:54 AM 8.6 °F -12.3 °F -4.0 °F 57% 29.88 in 10.0 mi NW 24.2 mph 32.2 mph N/A   Clear
6:13 AM 5.0 °F -16.2 °F -4.0 °F 66% 29.89 in 10.0 mi NW 21.9 mph 32.2 mph N/A   Clear
6:33 AM 5.0 °F -17.1 °F -4.0 °F 66% 29.89 in 10.0 mi NW 24.2 mph 33.4 mph N/A   Clear
6:53 AM 5.0 °F -16.2 °F -4.0 °F 66% 29.91 in 10.0 mi NW 21.9 mph 27.6 mph N/A   Clear
7:13 AM 5.0 °F -17.5 °F -5.8 °F 61% 29.92 in 10.0 mi NW 25.3 mph 33.4 mph N/A   Clear
7:33 AM 3.2 °F -20.3 °F -5.8 °F 66% 29.93 in 10.0 mi NW 26.5 mph 34.5 mph N/A   Clear
7:53 AM 3.2 °F -19.0 °F -5.8 °F 66% 29.94 in 10.0 mi NW 23.0 mph 28.8 mph N/A   Clear
8:13 AM 3.2 °F -18.1 °F -5.8 °F 66% 29.96 in 10.0 mi NW 20.7 mph 29.9 mph N/A   Clear
8:33 AM 3.2 °F -19.9 °F -5.8 °F 66% 29.96 in 10.0 mi NW 25.3 mph 33.4 mph N/A   Clear
8:53 AM 3.2 °F -20.7 °F -5.8 °F 66% 29.96 in 10.0 mi NW 27.6 mph 33.4 mph N/A   Clear
9:13 AM 5.0 °F -16.7 °F -4.0 °F 66% 29.97 in 10.0 mi NW 23.0 mph 31.1 mph N/A   Clear
9:33 AM 5.0 °F -17.5 °F -4.0 °F 66% 29.97 in 10.0 mi NW 25.3 mph 31.1 mph N/A   Clear
9:53 AM 5.0 °F -17.9 °F -4.0 °F 66% 29.98 in 10.0 mi NW 26.5 mph 31.1 mph N/A   Clear
10:13 AM 6.8 °F -14.7 °F -2.2 °F 67% 29.98 in 10.0 mi NW 24.2 mph 32.2 mph N/A   Clear
10:33 AM 8.6 °F -11.4 °F -2.2 °F 62% 29.98 in 10.0 mi NW 21.9 mph 29.9 mph N/A   Clear
10:53 AM 8.6 °F -12.7 °F -2.2 °F 62% 29.99 in 10.0 mi NW 25.3 mph 32.2 mph N/A   Clear
11:13 AM 8.6 °F -12.7 °F -4.0 °F 57% 29.98 in 10.0 mi NW 25.3 mph 33.4 mph N/A   Clear
11:33 AM 8.6 °F -11.9 °F -4.0 °F 57% 29.97 in 10.0 mi NW 23.0 mph - N/A   Clear
11:53 AM 10.4 °F -9.5 °F -0.4 °F 62% 29.96 in 10.0 mi NW 23.0 mph 31.1 mph N/A   Clear
12:13 PM 10.4 °F -9.5 °F -2.2 °F 57% 29.96 in 10.0 mi NW 23.0 mph 28.8 mph N/A   Clear
12:33 PM 10.4 °F -8.2 °F -0.4 °F 62% 29.95 in 10.0 mi NW 19.6 mph 26.5 mph N/A   Clear
12:53 PM 10.4 °F -9.1 °F -2.2 °F 57% 29.94 in 10.0 mi NW 21.9 mph 25.3 mph N/A   Clear
1:13 PM 10.4 °F -6.6 °F -2.2 °F 57% 29.93 in 10.0 mi NW 16.1 mph 21.9 mph N/A   Clear
1:33 PM 10.4 °F -6.0 °F -0.4 °F 62% 29.92 in 10.0 mi NW 15.0 mph 23.0 mph N/A   Clear
1:54 PM 10.4 °F -6.6 °F -0.4 °F 62% 29.92 in 10.0 mi NW 16.1 mph - N/A   Clear
2:13 PM 12.2 °F -4.8 °F 1.4 °F 62% 29.90 in 10.0 mi WNW 17.3 mph 21.9 mph N/A   Clear
2:33 PM 12.2 °F -2.5 °F 1.4 °F 62% 29.89 in 10.0 mi NW 12.7 mph 20.7 mph N/A   Clear
2:54 PM 12.2 °F -3.1 °F 1.4 °F 62% 29.89 in 10.0 mi West 13.8 mph 18.4 mph N/A   Clear
3:13 PM 12.2 °F -2.5 °F -0.4 °F 57% 29.88 in 10.0 mi WNW 12.7 mph 18.4 mph N/A   Clear
3:33 PM 12.2 °F -3.7 °F -0.4 °F 57% 29.87 in 10.0 mi WNW 15.0 mph 18.4 mph N/A   Clear
3:53 PM 12.2 °F -2.5 °F -0.4 °F 57% 29.87 in 10.0 mi WNW 12.7 mph - N/A   Clear
4:13 PM 14.0 °F 0.5 °F 1.4 °F 57% 29.86 in 10.0 mi WNW 11.5 mph - N/A   Clear
4:33 PM 12.2 °F -1.0 °F -0.4 °F 57% 29.85 in 10.0 mi WNW 10.4 mph - N/A   Clear
4:53 PM 12.2 °F 2.9 °F -0.4 °F 57% 29.82 in 10.0 mi West 5.8 mph - N/A   Clear
5:13 PM 12.2 °F 4.3 °F -0.4 °F 57% 29.81 in 10.0 mi West 4.6 mph - N/A   Clear
5:33 PM 12.2 °F 4.3 °F 1.4 °F 62% 29.79 in 10.0 mi SW 4.6 mph - N/A   Clear
5:53 PM 12.2 °F 4.3 °F 1.4 °F 62% 29.77 in 10.0 mi SW 4.6 mph - N/A   Clear
6:13 PM 12.2 °F 6.1 °F 1.4 °F 62% 29.75 in 10.0 mi South 3.5 mph - N/A   Clear
6:33 PM 12.2 °F 1.7 °F -0.4 °F 57% 29.74 in 10.0 mi South 6.9 mph - N/A   Clear
6:53 PM 12.2 °F 0.7 °F 1.4 °F 62% 29.71 in 10.0 mi SSE 8.1 mph - N/A   Clear
7:13 PM 12.2 °F -1.0 °F 1.4 °F 62% 29.69 in 10.0 mi SE 10.4 mph - N/A   Clear
7:33 PM 12.2 °F -1.0 °F 3.2 °F 67% 29.67 in 10.0 mi SE 10.4 mph - N/A Snow Light Snow
7:53 PM 12.2 °F -1.8 °F 5.0 °F 73% 29.66 in 1.2 mi SE 11.5 mph - N/A Snow Light Snow
8:13 PM 12.2 °F -1.8 °F 5.0 °F 73% 29.64 in 2.5 mi SE 11.5 mph - N/A Snow Light Snow
8:34 PM 12.2 °F -1.0 °F 6.8 °F 79% 29.59 in 1.0 mi SE 10.4 mph - N/A Snow Snow
8:53 PM 12.2 °F -2.5 °F 8.6 °F 85% 29.55 in 1.0 mi ESE 12.7 mph - N/A Snow Snow
9:13 PM 12.2 °F -2.5 °F 8.6 °F 85% 29.52 in 0.8 mi SE 12.7 mph - N/A Snow Snow
9:34 PM 12.2 °F -2.5 °F 8.6 °F 85% 29.52 in 0.8 mi SE 12.7 mph - N/A Snow Snow
9:53 PM 12.2 °F -4.3 °F 8.6 °F 85% 29.50 in 0.8 mi ESE 16.1 mph - N/A Snow Light Snow
10:13 PM 12.2 °F -1.8 °F 8.6 °F 85% 29.49 in 1.0 mi ESE 11.5 mph 18.4 mph N/A Snow Snow
10:33 PM 12.2 °F -1.8 °F 8.6 °F 85% 29.47 in 1.0 mi ESE 11.5 mph - N/A Snow Light Snow
10:53 PM 12.2 °F -2.5 °F 10.4 °F 92% 29.46 in 1.5 mi ESE 12.7 mph - N/A Snow Light Snow
11:13 PM 12.2 °F -4.8 °F 8.6 °F 85% 29.44 in 3.0 mi SE 17.3 mph - N/A Snow Light Snow
11:33 PM 14.0 °F -2.5 °F 10.4 °F 86% 29.40 in 5.0 mi SE 17.3 mph - N/A   Mostly Cloudy
11:53 PM 15.8 °F 1.4 °F 12.2 °F 86% 29.40 in 7.0 mi SE 13.8 mph - N/A   Scattered Clouds